Time,TemperatureF,DewpointF,PressureIn,WindDirection,WindDirectionDegrees,WindSpeedMPH,WindSpeedGustMPH,Humidity,HourlyPrecipIn,Conditions,Clouds,dailyrainin,SoftwareType,DateUTC
2013-07-04 00:00:00,50.0,34.0,29.87,NNE,16,3.0,6.0,53,0.00,,,0.00,,2013-07-04 08:00:00,
2013-07-04 00:33:00,50.0,34.0,29.87,NNE,16,3.0,6.0,53,0.00,,,0.00,,2013-07-04 08:33:00,
2013-07-04 00:42:00,50.0,34.0,29.87,NNE,16,3.0,6.0,53,0.00,,,0.00,,2013-07-04 08:42:00,
2013-07-04 00:53:00,50.0,34.0,29.87,NNE,16,3.0,6.0,53,0.00,,,0.00,,2013-07-04 08:53:00,
2013-07-04 01:00:00,50.0,35.0,29.87,NNE,18,4.0,8.0,55,0.00,,,0.00,,2013-07-04 09:00:00,
2013-07-04 01:33:00,50.0,35.0,29.87,NNE,18,4.0,8.0,55,0.00,,,0.00,,2013-07-04 09:33:00,
2013-07-04 01:42:00,50.0,35.0,29.87,NNE,18,4.0,8.0,55,0.00,,,0.00,,2013-07-04 09:42:00,
2013-07-04 01:52:00,50.0,35.0,29.87,NNE,18,4.0,8.0,55,0.00,,,0.00,,2013-07-04 09:52:00,
2013-07-04 02:00:00,48.0,34.0,29.87,East,86,1.0,8.0,57,0.00,,,0.00,,2013-07-04 10:00:00,
2013-07-04 02:34:00,48.0,34.0,29.87,East,86,1.0,8.0,57,0.00,,,0.00,,2013-07-04 10:34:00,
2013-07-04 02:43:00,48.0,34.0,29.87,East,86,1.0,8.0,57,0.00,,,0.00,,2013-07-04 10:43:00,
2013-07-04 02:53:00,48.0,34.0,29.87,East,86,1.0,8.0,57,0.00,,,0.00,,2013-07-04 10:53:00,
2013-07-04 03:00:00,49.0,34.0,29.87,NNW,341,0.0,4.0,57,0.00,,,0.00,,2013-07-04 11:00:00,
2013-07-04 03:34:00,49.0,34.0,29.87,NNW,341,0.0,4.0,57,0.00,,,0.00,,2013-07-04 11:34:00,
2013-07-04 03:43:00,49.0,34.0,29.87,NNW,341,0.0,4.0,57,0.00,,,0.00,,2013-07-04 11:43:00,
2013-07-04 03:53:00,49.0,34.0,29.87,NNW,341,0.0,4.0,57,0.00,,,0.00,,2013-07-04 11:53:00,
2013-07-04 04:00:00,49.0,33.0,29.86,SW,229,0.0,3.0,53,0.00,,,0.00,,2013-07-04 12:00:00,
2013-07-04 04:43:00,49.0,33.0,29.86,SW,229,0.0,3.0,53,0.00,,,0.00,,2013-07-04 12:43:00,
2013-07-04 04:52:00,49.0,33.0,29.86,SW,229,0.0,3.0,53,0.00,,,0.00,,2013-07-04 12:52:00,
2013-07-04 05:00:00,47.0,33.0,29.86,SW,215,0.0,3.0,59,0.00,,,0.00,,2013-07-04 13:00:00,
2013-07-04 05:43:00,47.0,33.0,29.86,SW,215,0.0,3.0,59,0.00,,,0.00,,2013-07-04 13:43:00,
2013-07-04 05:53:00,47.0,33.0,29.86,SW,215,0.0,3.0,59,0.00,,,0.00,,2013-07-04 13:53:00,
2013-07-04 06:00:00,49.0,35.0,29.86,ENE,65,2.0,5.0,58,0.00,,,0.00,,2013-07-04 14:00:00,
2013-07-04 06:43:00,49.0,35.0,29.86,ENE,65,2.0,5.0,58,0.00,,,0.00,,2013-07-04 14:43:00,
2013-07-04 06:53:00,49.0,35.0,29.86,ENE,65,2.0,5.0,58,0.00,,,0.00,,2013-07-04 14:53:00,
2013-07-04 07:00:00,51.0,37.0,29.85,ENE,74,3.0,7.0,59,0.00,,,0.00,,2013-07-04 15:00:00,
2013-07-04 07:33:00,51.0,37.0,29.85,ENE,74,3.0,7.0,59,0.00,,,0.00,,2013-07-04 15:33:00,
2013-07-04 07:43:00,51.0,37.0,29.85,ENE,74,3.0,7.0,59,0.00,,,0.00,,2013-07-04 15:43:00,
2013-07-04 07:52:00,51.0,37.0,29.85,ENE,74,3.0,7.0,59,0.00,,,0.00,,2013-07-04 15:52:00,
2013-07-04 08:00:00,52.0,34.0,29.85,SE,136,2.0,7.0,50,0.00,,,0.00,,2013-07-04 16:00:00,
2013-07-04 08:33:00,52.0,34.0,29.85,SE,136,2.0,7.0,50,0.00,,,0.00,,2013-07-04 16:33:00,
2013-07-04 08:43:00,52.0,34.0,29.85,SE,136,2.0,7.0,50,0.00,,,0.00,,2013-07-04 16:43:00,
2013-07-04 08:52:00,52.0,34.0,29.85,SE,136,2.0,7.0,50,0.00,,,0.00,,2013-07-04 16:52:00,
2013-07-04 09:00:00,56.0,37.0,29.85,East,82,4.0,8.0,48,0.00,,,0.00,,2013-07-04 17:00:00,
2013-07-04 09:34:00,56.0,37.0,29.85,East,82,4.0,8.0,48,0.00,,,0.00,,2013-07-04 17:34:00,
2013-07-04 09:43:00,56.0,37.0,29.85,East,82,4.0,8.0,48,0.00,,,0.00,,2013-07-04 17:43:00,
2013-07-04 09:53:00,56.0,37.0,29.85,East,82,4.0,8.0,48,0.00,,,0.00,,2013-07-04 17:53:00,
2013-07-04 10:00:00,55.0,34.0,29.85,SE,130,4.0,10.0,45,0.00,,,0.00,,2013-07-04 18:00:00,
2013-07-04 10:33:00,55.0,34.0,29.85,SE,130,4.0,10.0,45,0.00,,,0.00,,2013-07-04 18:33:00,
2013-07-04 10:43:00,55.0,34.0,29.85,SE,130,4.0,10.0,45,0.00,,,0.00,,2013-07-04 18:43:00,
2013-07-04 10:52:00,55.0,34.0,29.85,SE,130,4.0,10.0,45,0.00,,,0.00,,2013-07-04 18:52:00,
2013-07-04 11:00:00,62.0,37.0,29.85,SE,136,7.0,15.0,39,0.00,,,0.00,,2013-07-04 19:00:00,
2013-07-04 11:43:00,62.0,37.0,29.85,SE,136,7.0,15.0,39,0.00,,,0.00,,2013-07-04 19:43:00,
2013-07-04 11:53:00,62.0,37.0,29.85,SE,136,7.0,15.0,39,0.00,,,0.00,,2013-07-04 19:53:00,
2013-07-04 12:00:00,57.0,35.0,29.85,SSE,151,6.0,19.0,43,0.00,,,0.00,,2013-07-04 20:00:00,
2013-07-04 12:34:00,57.0,35.0,29.85,SSE,151,6.0,19.0,43,0.00,,,0.00,,2013-07-04 20:34:00,
2013-07-04 12:42:00,57.0,35.0,29.85,SSE,151,6.0,19.0,43,0.00,,,0.00,,2013-07-04 20:42:00,
2013-07-04 12:53:00,57.0,35.0,29.85,SSE,151,6.0,19.0,43,0.00,,,0.00,,2013-07-04 20:53:00,
2013-07-04 13:00:00,62.0,35.0,29.86,SSE,152,7.0,16.0,37,0.00,,,0.00,,2013-07-04 21:00:00,
2013-07-04 13:32:00,62.0,35.0,29.86,SSE,152,7.0,16.0,37,0.00,,,0.00,,2013-07-04 21:32:00,
2013-07-04 13:43:00,62.0,35.0,29.86,SSE,152,7.0,16.0,37,0.00,,,0.00,,2013-07-04 21:43:00,
2013-07-04 13:53:00,62.0,35.0,29.86,SSE,152,7.0,16.0,37,0.00,,,0.00,,2013-07-04 21:53:00,
2013-07-04 14:00:00,61.0,33.0,29.86,ESE,122,8.0,21.0,35,0.00,,,0.00,,2013-07-04 22:00:00,
2013-07-04 14:33:00,61.0,33.0,29.86,ESE,122,8.0,21.0,35,0.00,,,0.00,,2013-07-04 22:33:00,
2013-07-04 14:43:00,61.0,33.0,29.86,ESE,122,8.0,21.0,35,0.00,,,0.00,,2013-07-04 22:43:00,
2013-07-04 14:52:00,61.0,33.0,29.86,ESE,122,8.0,21.0,35,0.00,,,0.00,,2013-07-04 22:52:00,
2013-07-04 15:00:00,61.0,33.0,29.85,SE,144,8.0,21.0,35,0.00,,,0.00,,2013-07-04 23:00:00,
2013-07-04 15:33:00,61.0,33.0,29.85,SE,144,8.0,21.0,35,0.00,,,0.00,,2013-07-04 23:33:00,
2013-07-04 15:43:00,61.0,33.0,29.85,SE,144,8.0,21.0,35,0.00,,,0.00,,2013-07-04 23:43:00,
2013-07-04 15:52:00,61.0,33.0,29.85,SE,144,8.0,21.0,35,0.00,,,0.00,,2013-07-04 23:52:00,
2013-07-04 16:00:00,60.0,33.0,29.86,SE,144,6.0,16.0,37,0.00,,,0.00,,2013-07-05 00:00:00,
2013-07-04 16:32:00,60.0,33.0,29.86,SE,144,6.0,16.0,37,0.00,,,0.00,,2013-07-05 00:32:00,
2013-07-04 16:43:00,60.0,33.0,29.86,SE,144,6.0,16.0,37,0.00,,,0.00,,2013-07-05 00:43:00,
2013-07-04 16:52:00,60.0,33.0,29.86,SE,144,6.0,16.0,37,0.00,,,0.00,,2013-07-05 00:52:00,
2013-07-04 17:00:00,58.0,39.0,29.87,SW,220,6.0,14.0,50,0.00,,,0.00,,2013-07-05 01:00:00,
2013-07-04 17:32:00,58.0,39.0,29.87,SW,220,6.0,14.0,50,0.00,,,0.00,,2013-07-05 01:32:00,
2013-07-04 17:42:00,58.0,39.0,29.87,SW,220,6.0,14.0,50,0.00,,,0.00,,2013-07-05 01:42:00,
2013-07-04 17:52:00,58.0,39.0,29.87,SW,220,6.0,14.0,50,0.00,,,0.00,,2013-07-05 01:52:00,
2013-07-04 18:00:00,55.0,42.0,29.88,WSW,238,6.0,15.0,61,0.00,,,0.00,,2013-07-05 02:00:00,
2013-07-04 18:32:00,55.0,42.0,29.88,WSW,238,6.0,15.0,61,0.00,,,0.00,,2013-07-05 02:32:00,
2013-07-04 18:42:00,55.0,42.0,29.88,WSW,238,6.0,15.0,61,0.00,,,0.00,,2013-07-05 02:42:00,
2013-07-04 18:52:00,55.0,42.0,29.88,WSW,238,6.0,15.0,61,0.00,,,0.00,,2013-07-05 02:52:00,
2013-07-04 19:00:00,53.0,42.0,29.89,WSW,242,5.0,13.0,65,0.00,,,0.00,,2013-07-05 03:00:00,
2013-07-04 19:33:00,53.0,42.0,29.89,WSW,242,5.0,13.0,65,0.00,,,0.00,,2013-07-05 03:33:00,
2013-07-04 19:42:00,53.0,42.0,29.89,WSW,242,5.0,13.0,65,0.00,,,0.00,,2013-07-05 03:42:00,
2013-07-04 19:52:00,53.0,42.0,29.89,WSW,242,5.0,13.0,65,0.00,,,0.00,,2013-07-05 03:52:00,
2013-07-04 20:00:00,47.0,41.0,29.92,WSW,238,8.0,17.0,80,0.00,,,0.00,,2013-07-05 04:00:00,
2013-07-04 20:33:00,47.0,41.0,29.92,WSW,238,8.0,17.0,80,0.00,,,0.00,,2013-07-05 04:33:00,
2013-07-04 20:43:00,47.0,41.0,29.92,WSW,238,8.0,17.0,80,0.00,,,0.00,,2013-07-05 04:43:00,
2013-07-04 20:53:00,47.0,41.0,29.92,WSW,238,8.0,17.0,80,0.00,,,0.00,,2013-07-05 04:53:00,
2013-07-04 21:00:00,45.0,43.0,29.93,WSW,249,7.0,15.0,92,0.02,,,0.02,,2013-07-05 05:00:00,
2013-07-04 21:33:00,45.0,43.0,29.93,WSW,249,7.0,15.0,92,0.02,,,0.02,,2013-07-05 05:33:00,
2013-07-04 21:43:00,45.0,43.0,29.93,WSW,249,7.0,15.0,92,0.02,,,0.02,,2013-07-05 05:43:00,
2013-07-04 21:52:00,45.0,43.0,29.93,WSW,249,7.0,15.0,92,0.02,,,0.02,,2013-07-05 05:52:00,
2013-07-04 22:00:00,44.0,41.0,29.93,West,279,4.0,10.0,90,0.01,,,0.03,,2013-07-05 06:00:00,
2013-07-04 22:34:00,44.0,41.0,29.93,West,279,4.0,10.0,90,0.01,,,0.03,,2013-07-05 06:34:00,
2013-07-04 22:44:00,44.0,41.0,29.93,West,279,4.0,10.0,90,0.01,,,0.03,,2013-07-05 06:44:00,
2013-07-04 22:53:00,44.0,41.0,29.93,West,279,4.0,10.0,90,0.01,,,0.03,,2013-07-05 06:53:00,
2013-07-04 23:00:00,43.0,41.0,29.95,WSW,239,4.0,9.0,93,0.01,,,0.04,,2013-07-05 07:00:00,
2013-07-04 23:34:00,43.0,41.0,29.95,WSW,239,4.0,9.0,93,0.01,,,0.04,,2013-07-05 07:34:00,
2013-07-04 23:43:00,43.0,41.0,29.95,WSW,239,4.0,9.0,93,0.01,,,0.04,,2013-07-05 07:43:00,
2013-07-04 23:53:00,43.0,41.0,29.95,WSW,239,4.0,9.0,93,0.01,,,0.04,,2013-07-05 07:53:00,